Weather History for Bismarck, ND

Change the Weather History Date:

Thursday, October 7, 2010

  Actual Average Record
Temperature  
Mean Temperature 60 °F 49 °F  
Max Temperature 80 °F 62 °F 91 °F (1920)
Min Temperature 40 °F 36 °F 15 °F (1976)
Degree Days  
Heating Degree Days 5 16  
Month to date heating degree days 66 104  
Since 1 July heating degree days 342 390  
Cooling Degree Days 0 0  
Month to date cooling degree days 3 0  
Year to date cooling degree days 507 519  
Growing Degree Days 10 (Base 50)    
Moisture  
Dew Point 46 °F    
Average Humidity 64    
Maximum Humidity 89    
Minimum Humidity 39    
Precipitation  
Precipitation 0.00 in 0.04 in 0.92 in (1977)
Month to date precipitation 0.00 0.31  
Year to date precipitation 20.35 15.71  
Snow  
Snow 0.00 in 0.00 in 4.90 in (1946)
Month to date snowfall 0.0 0.1  
Since 1 July snowfall T 0.3  
Since 1 September snowfall T 0.3  
Snow Depth 0.00 in    
Sea Level Pressure  
Sea Level Pressure 30.01 in    
Wind  
Wind Speed 6 mph (ESE)    
Max Wind Speed 17 mph    
Max Gust Speed 21 mph    
Visibility 10 miles    
Events      
T = Trace of Precipitation, MM = Missing Value Source: NWS Daily Summary

Daily Weather History Graph

Daily Weather History Graph

Search for Another Location

Airport:

Trip Planner

Search our weather history database for the weather conditions in past years. The results will help you decide how hot, cold, wet, or windy it might be!

Date:

Astronomy

Oct. 07, 2010 Rise Set
Actual Time 7:49 AM CDT 7:10 PM CDT
Civil Twilight 7:19 AM CDT 7:41 PM CDT
Nautical Twilight 6:44 AM CDT 8:16 PM CDT
Astronomical Twilight 6:08 AM CDT 8:51 PM CDT
Moon 7:47 AM CDT (10/7) 6:43 PM CDT (10/7)
Length of Visible Light 12h 21m
Length of Day
11h 21m
Waning Crescent, 0% of the Moon is Illuminated
Oct 7
Waning Crescent
Oct 7
New
Oct 14
First Quarter
Oct 22
Full
Oct 30
Last Quarter

Hourly Weather History & Observations

Time (CDT) Temp. Windchill Dew Point Humidity Pressure Visibility Wind Dir Wind Speed Gust Speed Precip Events Conditions
12:52 AM 43.0 °F 41.3 °F 37.9 °F 82% 30.21 in 10.0 mi ENE 3.5 mph - N/A   Clear
1:52 AM 42.1 °F 40.2 °F 37.0 °F 82% 30.20 in 10.0 mi ENE 3.5 mph - N/A   Clear
2:52 AM 42.1 °F 40.2 °F 37.9 °F 85% 30.19 in 10.0 mi NE 3.5 mph - N/A   Clear
3:52 AM 41.0 °F 39.0 °F 37.0 °F 86% 30.17 in 10.0 mi NE 3.5 mph - N/A   Clear
4:52 AM 41.0 °F 39.0 °F 37.0 °F 86% 30.15 in 10.0 mi ENE 3.5 mph - N/A   Clear
5:52 AM 42.1 °F 39.2 °F 37.0 °F 82% 30.14 in 10.0 mi ENE 4.6 mph - N/A   Clear
6:52 AM 42.1 °F 38.4 °F 37.9 °F 85% 30.13 in 10.0 mi East 5.8 mph - N/A   Clear
7:52 AM 44.1 °F 41.5 °F 39.0 °F 82% 30.12 in 10.0 mi ESE 4.6 mph - N/A   Clear
8:52 AM 48.9 °F - 39.9 °F 71% 30.11 in 10.0 mi East 5.8 mph - N/A   Clear
9:52 AM 55.9 °F - 42.1 °F 60% 30.09 in 10.0 mi ESE 5.8 mph - N/A   Clear
10:52 AM 62.1 °F - 44.1 °F 52% 30.07 in 10.0 mi SSE 8.1 mph - N/A   Clear
11:52 AM 68.0 °F - 46.9 °F 47% 30.05 in 10.0 mi South 10.4 mph - N/A   Clear
12:52 PM 72.0 °F - 48.9 °F 44% 30.00 in 10.0 mi South 13.8 mph - N/A   Clear
1:52 PM 73.0 °F - 48.9 °F 42% 29.96 in 10.0 mi South 15.0 mph - N/A   Clear
2:52 PM 78.1 °F - 51.1 °F 39% 29.93 in 10.0 mi South 10.4 mph 20.7 mph N/A   Clear
3:52 PM 75.9 °F - 52.0 °F 43% 29.90 in 10.0 mi South 9.2 mph - N/A   Clear
4:52 PM 79.0 °F - 55.0 °F 44% 29.89 in 10.0 mi SE 9.2 mph - N/A   Clear
5:52 PM 77.0 °F - 54.0 °F 45% 29.86 in 10.0 mi SSE 12.7 mph - N/A   Clear
6:52 PM 71.1 °F - 55.9 °F 59% 29.86 in 10.0 mi SSE 8.1 mph - N/A   Clear
7:52 PM 71.1 °F - 54.0 °F 55% 29.85 in 10.0 mi Calm Calm - N/A   Clear
8:52 PM 63.0 °F - 53.1 °F 70% 29.86 in 10.0 mi Calm Calm - N/A   Clear
9:52 PM 55.9 °F - 51.1 °F 84% 29.86 in 10.0 mi East 3.5 mph - N/A   Clear
10:52 PM 55.9 °F - 52.0 °F 87% 29.86 in 10.0 mi Calm Calm - N/A   Clear
11:52 PM 54.0 °F - 50.0 °F 86% 29.87 in 10.0 mi Calm Calm - N/A   Clear